Other Public Products
Issued by NWS Charleston, SC

Current Version | Previous Version | Graphics & Text | Print | Product List | Glossary On
Versions: 1 2 3 4 5 6 7 8 9 10 11 12 13 14 15 16 17 18 19 20 21 22 23 24 25 26 27 28 29 30 31 32 33 34 35 36 37 38 39 40 41 42 43 44 45 46 47 48 49 50
000 FPUS82 KCHS 180912 OPUCHS TEST...KCHS/KSAV Gateway Observations...TEST National Weather Service Charleston SC 500 AM EDT WED OCT 18 2017 NOTE: "fair" indicates few or no clouds below 12,000 feet with no significant weather and/or obstructions to visibility. SCZ050-WAZ558-NCZ071-TXZ119-213-PAZ071-DCZ001-FLZ074-172-MI076- NYZ176-178-MAZ016-IL014-TNZ027-NJZ106-GAZ044-MD014-181000- ...Gateway Observations for Charleston International... CITY SKY/WX TMP DP RH WIND PRES REMARKS Chas Airport CLEAR 52 45 77 NE12 30.25S Seattle CLOUDY 49 42 77 SE6 30.06F Charlotte CLEAR 45 42 89 N3 30.33R Dallas DFW CLEAR 55 44 66 CALM 30.12S Dallas Love CLEAR 57 43 59 SE7 30.13F Philladelphia CLEAR 48 41 76 SW3 30.32S Wash National PTCLDY 47 41 80 SW3 30.35R Baltimore CLEAR 40 40 100 CALM 30.33S Miami CLOUDY 78 70 76 SE3 29.97S Detroit CLEAR 47 41 80 S6 30.23R Newark CLEAR 46 37 71 SW6 30.28R Laguardia CLEAR 54 36 50 W7 30.27R J F K CLEAR 51 41 68 SW10 30.29R Boston Logan PTCLDY 50 39 66 W14 30.21R Ft. Lauderdale CLOUDY 77 76 96 N5 29.96F Chicago O`Hare CLEAR 51 40 65 S7 30.15R Chicago Midway CLEAR 51 40 65 S7 30.16S Houston Bush CLEAR 54 51 90 CALM 30.15F Houston Hobby CLEAR 58 50 75 CALM 30.13F Nashville CLEAR 43 40 89 CALM 30.27S Atlanta CLEAR 49 43 80 E9 30.28S $$ GAZ044-118-TXZ119-213-NCZ071-DCZ001-MDZ014-506-PAZ021-071-NJZ106- NYZ176-178-MAZ106-OHZ011-021-055-MIZ076-KYZ091-ILZ014-INZ047- MNZ060-ONZ431-181000- ...Gateway Observations for Savannah International... CITY SKY/WX TMP DP RH WIND PRES REMARKS Savannah Arpt CLEAR 54 44 69 NE12 30.23S Atlanta CLEAR 49 43 80 E9 30.28S Charlotte CLEAR 45 42 89 N3 30.33R Dallas DFW CLEAR 55 44 66 CALM 30.12S Houston Bush CLEAR 54 51 90 CALM 30.15F Wash National PTCLDY 47 41 80 SW3 30.35R Wash Dulles CLEAR 38 37 97 CALM 30.34R Baltimore CLEAR 40 40 100 CALM 30.33S Philadelphia CLEAR 48 41 76 SW3 30.32S Newark CLEAR 46 37 71 SW6 30.28R Laguardia CLEAR 54 36 50 W7 30.27R J F K CLEAR 51 41 68 SW10 30.29R Boston PTCLDY 50 39 66 W14 30.21R Pittsburg CLEAR 43 38 82 CALM 30.31R Akron CLEAR 45 38 76 S3 30.29R Cleveland PTCLDY 49 40 71 S6 30.29R Cincinnati CLEAR 47 40 76 NE3 30.27S Columbus CLEAR 41 40 97 CALM 30.29S Detroit CLEAR 47 41 80 S6 30.23R Chicago O`Hare CLEAR 51 40 65 S7 30.15R Minneapolis CLEAR 56 46 69 S3 29.86F Indianapolis CLEAR 46 41 82 SE5 30.25R Toronto Canada CLEAR 52 43 71 S7 30.18R $$

USA.gov is the U.S. government's official web portal to all federal, state and local government web resources and services.